Regional Weather Roundup
Issued by NWS

Current Version | Previous Version | Text Only | Print | Product List | Glossary On
Versions: 1 2 3 4 5 6 7 8 9 10 11 12 13 14 15 16 17 18 19 20 21 22 23 24 25 26 27 28 29 30 31 32 33 34 35 36 37 38 39 40 41 42 43 44 45 46 47 48 49 50
000
ASUS44 KFWD 240715
RWRTX
NORTH TEXAS HOURLY WEATHER ROUNDUP
NATIONAL WEATHER SERVICE FORT WORTH TX
200 AM CDT SUN MAY 24 2015

NOTE: "FAIR" INDICATES FEW OR NO CLOUDS BELOW 12,000 FEET WITH NO
SIGNIFICANT WEATHER AND/OR OBSTRUCTIONS TO VISIBILITY.

TXZ118-119-240800-
DALLAS/FORT WORTH METROPLEX

CITY           SKY/WX    TMP DP  RH WIND       PRES   REMARKS
DFW AIRPORT    TSTM      67  67 100 NE5       29.87F FOG
DALLAS LOVE    TSTM      69  67  93 NE7       29.87F FOG
FTW MEACHAM    RAIN      70  68  93 N6        29.86F FOG
DAL-EXECUTIVE  RAIN      70  68  93 NE8       29.85F
FTW-ALLIANCE   TSTM      68  68 100 E6        29.89F FOG
FTW-NAS-JRB    TSTM      70  69  97 NE5       29.87F FOG
FTW-SPINKS     CLOUDY    69  68  96 W9        29.87F
ARLINGTON      TSTM      70  67  90 NW12      29.84F
GRAND PRAIRIE  CLOUDY    69  69 100 N5        29.88F
ADDISON        RAIN     N/A N/A N/A E6        29.90F
MESQUITE       CLOUDY    72  71  97 E14       29.87F
LANCASTER      CLOUDY    71  69  94 E7        29.86F
$$

TXZ091>094-102>105-117-120-121-131>134-240800-
NORTH CENTRAL TEXAS

CITY           SKY/WX    TMP DP  RH WIND       PRES   REMARKS
SHRMAN/DENISON TSTM      69  68  97 S13       29.95S
GAINESVILLE    RAIN      68  67  98 SW6       29.96R
BOWIE          CLOUDY    66  66 100 CALM      29.91F
BRIDGEPORT     RAIN      68  68 100 CALM      29.93S
DECATUR        RAIN      69  69  99 CALM      29.92S
DENTON         LGT RAIN  69  68  96 E3        29.90F
MCKINNEY       LGT RAIN  68  67  96 E3        29.91F
GREENVILLE     CLOUDY    72  70  94 SE12      29.92F
ROCKWALL       CLOUDY    72  72  99 E7        29.89F
TERRELL        LGT RAIN  74  71  91 SE18G24   29.88F
WAXAHACHIE     HVY RAIN  71  71 100 E17G24    29.82F
CLEBURNE       LGT RAIN  70  70 100 N5        29.86F
GRANBURY         N/A     70  68  94 W7        29.89F
$$

TXZ083>090-098>101-113>116-127>130-139>142-154-155-240800-
WESTERN NORTH TEXAS

CITY           SKY/WX    TMP DP  RH WIND       PRES   REMARKS
WICHITA FALLS  CLOUDY    65  64  97 E10       29.87F
WF-KICKAPOO    CLOUDY    66  64  93 E5        29.89F
VERNON         CLOUDY    64  59  84 E9        29.89S
ABILENE        CLOUDY    65  61  87 SE8       29.90S
ABILENE-DYESS  CLOUDY    65  58  80 S12       29.86F
BRECKENRIDGE   CLOUDY    67  64  91 E6        29.88F
GRAHAM         CLOUDY    66  65  95 E3        29.86F
MINERAL WELLS  LGT RAIN  68  67  96 NE5       29.88F
STEPHENVILLE   CLOUDY    66  63  91 NE3       29.91F
COMANCHE       CLOUDY    64  64 100 CALM      29.91S
BROWNWOOD      CLOUDY    64  64 100 SE8       29.93R
COLEMAN        CLOUDY    65  64  95 SE6       29.93R
BRADY          LGT RAIN  63  63 100 SE10      29.90S
$$

TXZ143>147-156>162-174-175-240800-
CENTRAL TEXAS

CITY           SKY/WX    TMP DP  RH WIND       PRES   REMARKS
WACO           CLOUDY    67  65  93 S20G29    29.90R
WACO-MCGREGOR  CLOUDY    66  61  82 S17       29.91R
HILLSBORO      LGT RAIN  67  64  91 S20G26    29.88R
CORSICANA      LGT RAIN  71  66  84 S18G26    29.94R
MEXIA          DRIZZLE   66  64  94 MISG      29.95R
CAMERON        LGT RAIN  67  65  96 S13G23    29.91F
TEMPLE         CLOUDY    64  61  88 SE13      29.90S
KILLEEN        NOT AVBL
KILLEEN-SKYLRK CLOUDY    66  61  82 SE9       29.90S
FORT HOOD      CLOUDY    66  64  96 SE10      29.89S
GATESVILLE     CLOUDY    66  66 100 SE3       29.92R
HAMILTON       CLOUDY    66  66 100 CALM      29.93R
LAMPASAS       CLOUDY    65  64  94 S5        29.90S
$$

TXZ095>097-106>112-122>126-135>138-148>153-164>167-240800-
EAST TEXAS

CITY           SKY/WX    TMP DP  RH WIND       PRES   REMARKS
PARIS          CLOUDY    72  66  83 SE13      29.95F
SULPHUR SPRNGS CLOUDY    73  71  95 SE9       29.96F
MOUNT PLEASANT CLOUDY    73  71  94 SE7       29.99F
GILMER         CLOUDY    73  70  91 SE7G16    29.99S
MINEOLA        CLOUDY    75  73  94 SE10G16   29.96F
TYLER          CLOUDY    75  70  84 S16       29.95F
LONGVIEW       CLOUDY    74  70  87 S9        29.99F
MARSHALL       MOCLDY    73  70  90 SE6       30.03S
ATHENS         LGT RAIN  73  70  88 SE13G21   29.93F
PALESTINE      CLOUDY    75  72  88 SE10G16   29.98S
JACKSONVILLE   CLOUDY    74  71  88 S16G22    30.01F
HENDERSON      CLOUDY    73  71  92 S10G16    30.02S
NACOGDOCHES    CLOUDY    73  70  88 S9        30.01F
LUFKIN         CLOUDY    76  71  85 S5        30.02R
$$

SUPPLEMENTAL OBSERVATIONS (CENTRAL)

CITY           SKY/WX    TMP DP  RH WIND       PRES   REMARKS
LAKE TEXOMA      N/A     70  66  88 SW16        N/A
CADDO GRASSLND   N/A     72  68  88 S7          N/A
PAT MAYSE LAKE   N/A     72  70  94 SE14        N/A
GREENVILLE       N/A     72  68  88 SE9         N/A
CEDAR HILL       N/A     70  66  88 N6          N/A
ATHENS           N/A     75  70  83 S20G25      N/A
LAKE LIMESTONE   N/A     66  61  82 SE6G20      N/A
MCGREGOR         N/A     66  63  88 S16G24      N/A
TEMPLE           N/A     66  64  94 SE9G24      N/A
$$

SUPPLEMENTAL OBSERVATIONS (WEST)

CITY           SKY/WX    TMP DP  RH WIND       PRES   REMARKS
MILLERS CREEK    N/A     66  61  82 SE6G20      N/A
POSSUM KINGDOM   N/A     66  61  82 E5          N/A
LBJ GRASSLAND    N/A     70  68  94 NE1         N/A
GRANBURY         N/A     68  66  94 W7          N/A
COMANCHE         N/A     64  63  94 S5          N/A
HAMBY            N/A     64  59  82 SE8         N/A
IVIE RESERVOIR   N/A     64  61  88 E9          N/A
COLORADO BEND    N/A     64  63  94 SW8G16      N/A
$$

SUPPLEMENTAL OBSERVATIONS (EAST)

CITY           SKY/WX    TMP DP  RH WIND       PRES   REMARKS
CLARKSVILLE      N/A     72  70  94 SE8         N/A
TEXARKANA        N/A     73  70  88 SE5         N/A
LINDEN           N/A     72  66  83 SE1         N/A
CADDO LAKE       N/A     72  68  88 S3          N/A
GILMER           N/A     73  70  88 S9          N/A
HENDERSON        N/A     73  70  88 S9          N/A
LUFKIN           N/A     73  70  88 MISG        N/A
N SABINE NF      N/A     72  70  94 MISG        N/A
S SABINE NF      N/A     72  68  88 CALM        N/A
$$

SUPPLEMENTAL OBSERVATIONS ARE A COLLECTION OF AUTOMATED INSTRUMENTS
THAT ARE MAINTAINED BY A VARIETY OF FEDERAL AND STATE AGENCIES.
CERTAIN ELEMENTS...SUCH AS HUMIDITY VALUES AND SUSTAINED WIND
SPEEDS...MAY BE APPROXIMATED.



USA.gov is the U.S. government's official web portal to all federal, state and local government web resources and services.